Weather reports worldwide

Advertisment
Luqa, Malta (16597): temperature & dewpoint: 09.12.2018 23:00:00 - 15.12.2018 23:00:00 (CET)Luqa, Malta (16597): wind speed: 09.12.2018 23:00:00 - 15.12.2018 23:00:00 (CET)Luqa, Malta (16597): wind direction: 09.12.2018 23:00:00 - 15.12.2018 23:00:00 (CET)Luqa, Malta (16597): reduced air pressure: 09.12.2018 23:00:00 - 15.12.2018 23:00:00 (CET)Luqa, Malta (16597): visibility: 09.12.2018 23:00:00 - 15.12.2018 23:00:00 (CET)
Date & Time tt [°C] td [°C] ff [km/h] ff [kn] dd ppp [hPa] vv [km]
15.12.2018 23:00:00 - - - - - - -
15.12.2018 22:00:00 12,6 2,5 41 22 NNW 1017,2 10
15.12.2018 21:00:00 13,0 3,0 37 20 NNW - 10
15.12.2018 20:00:00 13,0 4,0 37 20 NNW - 10
15.12.2018 19:00:00 13,2 4,7 37 20 NNW 1015,7 10
15.12.2018 18:00:00 13,0 6,0 34 18 NNW - 10
15.12.2018 17:00:00 14,0 5,0 44 24 NNW - 10
15.12.2018 16:00:00 15,0 8,3 46 25 NNW 1013,3 10
15.12.2018 15:00:00 15,0 10,0 44 24 NNW - 10
15.12.2018 14:00:00 16,0 10,0 37 20 NNW - 10
15.12.2018 13:00:00 17,2 11,4 34 18 NNW 1011,3 10
15.12.2018 12:00:00 16,0 10,0 24 13 NNW - 10
15.12.2018 11:00:00 16,0 10,0 24 13 NNW - 10
15.12.2018 10:00:00 16,0 10,0 21 11 NNW - 10
15.12.2018 09:00:00 13,0 10,0 11 6 NW - 10
15.12.2018 08:00:00 12,0 9,0 8 4 W - 10
15.12.2018 07:00:00 10,3 8,0 8 4 W 1009,7 10
15.12.2018 06:00:00 11,0 8,0 5 3 W - 10
15.12.2018 05:00:00 12,0 8,0 5 3 SSW - 10
15.12.2018 04:00:00 11,5 8,3 11 6 SSE 1008,7 10
15.12.2018 03:00:00 12,0 8,0 4 2 SSW - 10
15.12.2018 02:00:00 13,0 8,0 8 4 W - 10
15.12.2018 01:00:00 14,7 5,8 11 6 SW 1009,0 10
15.12.2018 00:00:00 15,0 7,0 13 7 WSW - 10
14.12.2018 23:00:00 15,0 9,0 18 10 W - 10
14.12.2018 22:00:00 14,9 7,8 15 8 WSW 1008,7 10
14.12.2018 21:00:00 15,0 7,0 18 10 WSW - 10
14.12.2018 20:00:00 16,0 9,0 21 11 WSW - 10
14.12.2018 19:00:00 16,7 11,4 21 11 WSW 1008,5 10
14.12.2018 18:00:00 17,0 12,0 13 7 WSW - 10
14.12.2018 17:00:00 18,0 11,0 16 9 WSW - 10
14.12.2018 16:00:00 17,8 10,8 16 9 SW 1007,8 10
14.12.2018 15:00:00 18,0 11,0 22 12 SSW - 10
14.12.2018 14:00:00 18,0 11,0 18 10 SSW - 10
14.12.2018 13:00:00 18,5 10,9 28 15 SSW 1008,4 10
14.12.2018 12:00:00 19,0 11,0 22 12 SSW - 10
14.12.2018 11:00:00 19,0 10,0 26 14 SSW - 10
14.12.2018 10:00:00 18,4 10,4 22 12 SSW 1010,9 10
14.12.2018 09:00:00 18,0 11,0 22 12 SSW - 10
14.12.2018 08:00:00 18,0 11,0 22 12 SSW - 10
14.12.2018 07:00:00 17,1 11,9 15 8 SSW 1010,9 10
14.12.2018 06:00:00 17,0 12,0 22 12 SSW - 10
14.12.2018 05:00:00 17,0 12,0 16 9 SSW - 10
14.12.2018 04:00:00 16,4 11,5 16 9 SSW 1011,8 10
14.12.2018 03:00:00 16,0 11,0 11 6 SSW - 10
14.12.2018 02:00:00 16,0 11,0 15 8 SSW - 10
14.12.2018 01:00:00 15,6 10,2 13 7 SW 1013,2 10
14.12.2018 00:00:00 16,0 11,0 15 8 SW - 10
13.12.2018 23:00:00 16,0 11,0 16 9 SW - 10
13.12.2018 22:00:00 15,8 10,4 16 9 SW 1013,9 10
13.12.2018 21:00:00 16,0 11,0 16 9 SW - 10
13.12.2018 20:00:00 16,0 10,0 15 8 SW - 10
13.12.2018 19:00:00 16,0 9,8 13 7 SW 1014,1 10
13.12.2018 18:00:00 16,0 11,0 16 9 WSW - 10
13.12.2018 17:00:00 16,0 11,0 16 9 WSW - 10
13.12.2018 16:00:00 16,7 11,3 15 8 WSW 1014,4 10
13.12.2018 15:00:00 17,0 12,0 16 9 WSW - 10
13.12.2018 14:00:00 18,0 12,0 21 11 WSW - 10
13.12.2018 13:00:00 18,1 12,4 18 10 WSW 1015,1 10
13.12.2018 12:00:00 18,0 12,0 21 11 W - 10
13.12.2018 11:00:00 18,0 11,0 18 10 W - 10
13.12.2018 10:00:00 17,1 12,0 22 12 WSW 1016,6 10
13.12.2018 09:00:00 17,0 12,0 13 7 WSW - 10
13.12.2018 08:00:00 15,0 11,0 13 7 W - 10
13.12.2018 07:00:00 13,9 10,5 15 8 WSW 1016,6 10
13.12.2018 06:00:00 13,0 10,0 11 6 W - 10
13.12.2018 05:00:00 13,0 10,0 9 5 W - 10
13.12.2018 04:00:00 13,3 10,1 11 6 W 1017,3 10
13.12.2018 03:00:00 13,0 10,0 9 5 W - 10
13.12.2018 02:00:00 13,0 9,0 9 5 W - 10
13.12.2018 01:00:00 12,7 9,3 9 5 W 1017,9 10
13.12.2018 00:00:00 13,0 10,0 5 3 WNW - 10
12.12.2018 23:00:00 13,0 9,0 9 5 WNW - 10
12.12.2018 22:00:00 12,9 8,7 9 5 WNW 1018,8 10
12.12.2018 21:00:00 13,0 9,0 11 6 WNW - 10
12.12.2018 20:00:00 13,0 9,0 8 4 WNW - 10
12.12.2018 19:00:00 14,6 10,2 9 5 NW 1018,7 10
12.12.2018 18:00:00 15,0 10,0 5 3 WNW - 10
12.12.2018 17:00:00 15,0 10,0 8 4 W - 10
12.12.2018 16:00:00 16,7 9,7 13 7 W 1019,0 10
12.12.2018 15:00:00 17,0 10,0 13 7 W - 10
12.12.2018 14:00:00 17,0 9,0 18 10 WSW - 10
12.12.2018 13:00:00 17,6 10,1 16 9 W 1019,7 10
12.12.2018 12:00:00 18,0 10,0 18 10 W - 10
12.12.2018 11:00:00 17,0 10,0 13 7 W - 10
12.12.2018 10:00:00 16,5 9,6 13 7 WNW 1021,2 10
12.12.2018 09:00:00 16,0 10,0 5 3 NW - 10
12.12.2018 08:00:00 14,0 8,0 9 5 WNW - 10
12.12.2018 07:00:00 12,9 7,0 13 7 NW 1020,1 10
12.12.2018 06:00:00 13,0 8,0 13 7 NW - 10
12.12.2018 05:00:00 13,0 8,0 13 7 NNW - 10
12.12.2018 04:00:00 12,8 8,4 15 8 NW 1019,9 10
12.12.2018 03:00:00 13,0 8,0 13 7 NW - 10
12.12.2018 02:00:00 13,0 9,0 13 7 NW - 10
12.12.2018 01:00:00 14,2 8,0 15 8 NW 1019,8 10
12.12.2018 00:00:00 14,0 7,0 21 11 NW - 10
11.12.2018 23:00:00 14,0 7,0 24 13 NW - 10
11.12.2018 22:00:00 13,8 7,9 18 10 NW 1020,0 10
11.12.2018 21:00:00 14,0 8,0 15 8 NW - 10
11.12.2018 20:00:00 14,0 8,0 18 10 NNW - 10
11.12.2018 19:00:00 14,3 7,2 24 13 NNW 1019,5 10
11.12.2018 18:00:00 14,0 7,0 22 12 NNW - 10
11.12.2018 17:00:00 15,0 7,0 22 12 NW - 10
11.12.2018 16:00:00 15,2 7,4 24 13 NW 1018,7 10
11.12.2018 15:00:00 16,0 7,0 28 15 NW - 10
11.12.2018 14:00:00 16,0 6,0 24 13 NW - 10
11.12.2018 13:00:00 16,9 7,5 26 14 NW 1018,4 10
11.12.2018 12:00:00 17,0 7,0 26 14 NW - 10
11.12.2018 11:00:00 17,0 8,0 28 15 NW - 10
11.12.2018 10:00:00 15,9 8,5 29 16 NW 1019,5 10
11.12.2018 09:00:00 15,0 7,0 22 12 NNW - 10
11.12.2018 08:00:00 14,0 8,0 22 12 NW - 10
11.12.2018 07:00:00 14,3 8,3 22 12 NW 1018,1 10
11.12.2018 06:00:00 13,0 7,0 16 9 NNW - 10
11.12.2018 05:00:00 13,0 8,0 16 9 NW - 10
11.12.2018 04:00:00 14,1 8,0 24 13 NW 1017,5 10
11.12.2018 03:00:00 14,0 8,0 21 11 NW - 10
11.12.2018 02:00:00 14,0 8,0 24 13 NW - 10
11.12.2018 01:00:00 14,3 8,2 18 10 NNW 1017,8 10
11.12.2018 00:00:00 14,0 8,0 22 12 NW - 10
10.12.2018 23:00:00 14,0 8,0 16 9 NW - 10
10.12.2018 22:00:00 14,2 7,6 22 12 NW 1018,1 10
10.12.2018 21:00:00 14,0 8,0 24 13 NW - 10
10.12.2018 20:00:00 15,0 8,0 28 15 NW - 10
10.12.2018 19:00:00 14,9 8,0 26 14 NW 1017,6 10
10.12.2018 18:00:00 15,0 8,0 34 18 NW - 10
10.12.2018 17:00:00 15,0 8,0 34 18 NW - 10
10.12.2018 16:00:00 15,5 8,2 35 19 NNW 1017,3 10
10.12.2018 15:00:00 16,0 8,0 37 20 NW - 10
10.12.2018 14:00:00 17,0 9,0 24 13 NW - 10
10.12.2018 13:00:00 16,8 9,1 31 17 NW 1017,9 10
10.12.2018 12:00:00 16,0 10,0 29 16 NW - 10
10.12.2018 11:00:00 17,0 10,0 42 23 NW - 10
10.12.2018 10:00:00 16,9 10,2 42 23 NW 1018,1 10
10.12.2018 09:00:00 16,0 10,0 42 23 NNW - 10
10.12.2018 08:00:00 16,0 9,0 39 21 NNW - 10
10.12.2018 07:00:00 16,6 9,5 41 22 NW 1017,0 10
10.12.2018 06:00:00 17,0 12,0 37 20 NW - 10
10.12.2018 05:00:00 16,0 12,0 39 21 WNW - 10
10.12.2018 04:00:00 16,0 13,0 39 21 WNW 1017,2 10
10.12.2018 03:00:00 17,0 12,0 34 18 NW - 10
10.12.2018 02:00:00 17,0 11,0 48 26 NW - 10
10.12.2018 01:00:00 16,6 12,5 35 19 NW 1019,2 10
10.12.2018 00:00:00 17,0 12,0 37 20 NW - 10
09.12.2018 23:00:00 17,0 12,0 46 25 NW - 10

tt = temperature
td = dewpoint
ff = wind speed
dd = wind direction
ppp = reduced air pressure
vv = visibility

Next stations